Vorticity
7 8 15 1 9 7 7 4 8 14 13 18 11 10 10 21 19 30 10 2 29 3 7 16 7 11 8 14 8 6 8 10 14 14 6 10 5 1 8 12 12 12 10 10
8 13 3 6 6 2 7 12 13 11 20 13 15 5 19 16 16 -17 20 3 7 1 15 7 12 9 15 13 12 7 9 14 13 14 8 6 5 2 8 13 12 7 6 6
5 12 6 1 8 10 10 6 10 10 13 10 21 15 22 18 37 10 35 -4 -3 54 3 21 8 9 17 14 7 2 11 11 14 14 6 2 5 6 10 15 8 6 6 11
10 8 9 8 8 8 3 7 6 16 12 7 12 7 13 22 21 15 15 22 38 30 -4 19 11 8 11 9 2 4 18 11 9 7 6 5 1 8 15 8 9 5 11 8
8 8 5 3 3 1 5 2 11 9 9 19 19 17 29 32 28 1 19 -19 26 5 14 8 10 10 8 9 0 11 14 10 7 7 6 4 4 7 12 8 8 9 8 10
2 3 3 3 2 3 5 11 8 4 7 9 23 9 12 20 40 10 2 18 23 3 14 10 7 1 7 -1 12 27 10 6 9 6 5 1 5 9 11 8 8 7 9 11
1 2 3 7 3 9 9 13 17 11 9 24 10 13 -5 -2 17 10 17 27 15 37 -3 5 4 16 -1 11 12 17 6 8 14 6 4 6 -1 3 15 8 6 8 11 2
4 3 13 8 -1 6 6 8 4 9 9 14 16 -13 -6 -48 11 7 20 -15 0 5 38 25 7 6 6 2 17 16 5 8 9 6 1 3 2 8 10 8 6 9 8 0
10 5 17 5 3 15 23 6 20 12 6 10 28 10 10 20 5 30 -10 5 7 9 7 13 18 21 14 5 21 10 3 10 9 6 -0 6 3 10 12 5 8 7 8 2
3 -0 15 6 8 -3 2 11 -1 -1 10 2 7 22 21 9 -6 29 14 21 7 7 17 18 12 5 8 22 26 14 7 11 15 6 6 7 3 7 14 4 7 5 6 7
5 5 12 21 8 3 13 18 15 14 10 4 -2 2 31 -12 1 33 19 22 2 13 19 21 12 9 10 13 35 15 7 26 12 5 8 7 2 4 17 8 6 4 7 6
11 12 14 15 27 0 6 2 11 11 15 7 6 11 21 44 33 -5 28 6 8 14 16 16 17 14 10 2 -0 -3 -1 23 4 9 11 7 1 3 8 14 6 5 8 7
17 18 21 23 27 13 7 7 12 5 21 -16 -1 12 4 -26 19 13 11 0 14 11 15 20 16 3 3 5 4 10 16 4 9 9 7 4 4 3 3 10 17 7 7 8
13 22 27 23 41 16 10 2 -0 -1 38 5 7 -11 9 1 18 13 16 10 7 6 9 18 21 13 5 7 9 13 10 11 21 4 11 4 3 2 4 2 10 13 9 8
19 24 14 41 34 7 28 6 3 17 -16 -3 1 6 5 -2 1 -15 25 -6 25 4 13 12 19 18 11 13 13 10 12 5 8 1 9 3 1 1 3 4 4 6 8 8
17 23 5 26 31 29 -9 7 -1 -51 41 5 17 7 6 9 -2 9 28 5 15 26 20 16 20 17 11 17 15 10 6 13 2 1 9 0 5 4 1 7 6 2 3 7
4 5 25 -7 43 58 20 14 30 5 40 15 17 -12 19 13 9 16 -14 1 -1 7 8 12 26 21 18 9 14 9 4 8 6 0 4 8 -2 11 4 4 -2 9 3 3
11 27 32 5 24 55 -22 7 20 3 -5 -1 14 -10 12 6 11 3 11 6 11 3 2 10 8 20 13 25 8 9 8 4 4 1 4 9 -9 -6 17 4 3 2 6 4
54 3 12 17 19 30 21 10 25 7 7 -1 13 -13 24 14 10 4 4 1 1 8 10 4 15 -5 28 -7 30 27 5 9 5 6 19 21 32 16 19 2 1 1 5 5
65 16 16 -4 16 21 33 14 3 30 -2 9 10 22 6 1 11 13 11 7 11 13 16 10 11 -2 33 15 -17 42 7 11 1 1 -9 10 29 -5 11 10 6 1 2 7
31 15 29 20 14 -14 18 51 41 7 5 -1 -17 3 29 14 6 15 19 22 17 13 10 2 13 5 20 -13 61 19 9 18 7 1 7 12 10 9 6 14 2 9 5 2
5 -1 -23 4 -6 36 26 1 24 24 26 10 8 -3 -22 -8 11 5 7 9 13 15 14 5 7 7 7 16 17 26 39 1 -9 13 3 -5 23 15 -5 4 7 -15 4 6
-3 25 12 36 27 11 39 24 7 16 12 13 9 13 15 18 19 8 3 5 11 15 11 10 9 -1 23 7 9 8 25 35 32 50 -0 7 -9 -21 44 24 53 -10 44 44
17 12 3 -3 13 11 12 7 3 3 3 6 6 -3 19 8 8 4 16 8 6 13 18 13 11 10 -7 25 14 17 22 13 37 12 29 59 27 53 22 32 5 9 19 -6
17 38 10 15 -5 23 12 10 6 4 4 6 7 6 24 1 16 18 7 9 9 15 19 11 6 12 10 15 15 4 -2 10 12 16 16 16 14 14 15 13 16 25 38 25
12 16 16 22 3 11 7 13 14 11 6 1 19 19 20 15 6 19 18 15 14 16 9 19 8 8 4 5 7 2 3 5 8 6 8 9 13 11 16 16 17 16 13 11
Height
5670 5671 5672 5670 5669 5669 5668 5666 5663 5664 5663 5654 5655 5652 5654 5653 5652 5654 5657 5659 5664 5667 5673 5677 5682 5687 5693 5697 5698 5705 5711 5716 5717 5719 5724 5724 5726 5727 5727 5726 5725 5723 5723 5725
5662 5664 5664 5662 5660 5658 5655 5653 5653 5655 5653 5647 5647 5644 5644 5643 5646 5646 5648 5651 5653 5658 5663 5668 5673 5679 5683 5687 5690 5698 5702 5705 5708 5712 5716 5717 5720 5721 5721 5719 5719 5718 5718 5720
5654 5659 5654 5653 5649 5649 5651 5646 5648 5645 5644 5642 5635 5635 5633 5636 5638 5640 5640 5641 5644 5648 5655 5661 5667 5671 5675 5677 5683 5690 5694 5697 5701 5705 5708 5711 5714 5715 5715 5713 5713 5713 5714 5714
5648 5647 5645 5643 5644 5642 5644 5643 5642 5638 5635 5633 5630 5621 5626 5628 5629 5630 5628 5627 5636 5642 5647 5654 5660 5663 5666 5669 5676 5680 5685 5689 5693 5698 5701 5705 5708 5709 5708 5708 5707 5708 5708 5708
5640 5639 5639 5639 5639 5637 5639 5637 5635 5633 5630 5626 5627 5617 5618 5617 5617 5621 5621 5622 5624 5633 5640 5646 5651 5656 5659 5663 5669 5674 5679 5682 5684 5691 5694 5698 5701 5702 5702 5702 5702 5703 5702 5703
5632 5632 5631 5632 5633 5631 5632 5631 5629 5627 5625 5620 5619 5615 5614 5609 5610 5613 5614 5617 5619 5624 5631 5635 5639 5646 5648 5652 5658 5666 5672 5674 5679 5684 5688 5692 5693 5695 5695 5696 5696 5697 5696 5697
5624 5624 5624 5626 5625 5626 5625 5623 5621 5622 5621 5617 5612 5609 5608 5608 5607 5609 5612 5613 5615 5620 5627 5633 5638 5642 5647 5650 5651 5660 5664 5667 5673 5678 5682 5684 5687 5689 5690 5690 5692 5692 5692 5694
5611 5619 5616 5617 5618 5619 5618 5619 5617 5613 5614 5612 5609 5604 5603 5597 5605 5607 5608 5610 5614 5615 5619 5626 5633 5637 5640 5644 5649 5652 5657 5660 5664 5670 5675 5678 5682 5683 5685 5686 5687 5688 5689 5691
5602 5608 5610 5607 5609 5611 5614 5611 5613 5608 5608 5605 5604 5604 5594 5595 5599 5602 5604 5604 5609 5613 5617 5621 5625 5630 5633 5634 5640 5645 5650 5654 5658 5664 5667 5672 5675 5678 5680 5682 5683 5684 5686 5686
5591 5595 5601 5598 5599 5603 5605 5609 5608 5605 5602 5600 5598 5596 5596 5597 5596 5596 5599 5602 5605 5608 5611 5615 5619 5622 5625 5630 5632 5636 5640 5646 5653 5658 5661 5667 5670 5671 5675 5677 5678 5680 5681 5681
5579 5580 5591 5591 5592 5595 5599 5600 5600 5600 5597 5595 5593 5593 5592 5592 5594 5593 5595 5597 5600 5603 5606 5610 5612 5615 5620 5628 5626 5633 5637 5635 5647 5653 5656 5662 5665 5667 5670 5672 5674 5676 5677 5677
5568 5566 5568 5576 5584 5584 5588 5591 5593 5591 5591 5591 5589 5589 5589 5590 5590 5591 5590 5593 5595 5596 5600 5604 5608 5612 5617 5624 5627 5629 5632 5629 5640 5647 5652 5656 5660 5663 5665 5667 5670 5672 5673 5674
5556 5553 5552 5557 5569 5575 5574 5580 5581 5582 5583 5583 5586 5586 5585 5587 5587 5587 5588 5589 5592 5593 5595 5599 5604 5609 5613 5616 5621 5625 5627 5631 5636 5641 5646 5650 5653 5657 5660 5663 5665 5666 5668 5670
5541 5541 5540 5539 5548 5556 5559 5565 5570 5574 5576 5579 5580 5581 5580 5583 5584 5585 5585 5586 5587 5589 5590 5594 5598 5604 5608 5612 5614 5620 5625 5627 5632 5638 5642 5646 5647 5652 5656 5658 5660 5661 5663 5665
5529 5530 5528 5526 5533 5539 5545 5555 5562 5566 5568 5568 5573 5575 5576 5579 5578 5581 5580 5582 5584 5587 5588 5589 5592 5596 5601 5606 5610 5614 5620 5622 5626 5632 5635 5639 5642 5646 5650 5652 5655 5656 5659 5660
5522 5521 5519 5518 5523 5526 5531 5545 5553 5557 5560 5564 5568 5570 5569 5573 5574 5575 5576 5578 5580 5582 5583 5585 5587 5590 5594 5599 5604 5608 5613 5617 5621 5624 5628 5632 5636 5639 5643 5646 5648 5650 5652 5655
5517 5515 5513 5515 5516 5519 5527 5543 5549 5554 5555 5557 5561 5563 5565 5566 5568 5571 5572 5574 5577 5578 5579 5581 5582 5584 5587 5591 5597 5602 5607 5611 5614 5618 5621 5625 5629 5632 5634 5638 5642 5644 5646 5649
5510 5509 5510 5512 5512 5515 5528 5533 5537 5543 5549 5552 5553 5555 5555 5561 5564 5566 5568 5570 5573 5574 5576 5576 5577 5577 5580 5584 5589 5594 5598 5603 5607 5612 5615 5618 5621 5623 5626 5629 5633 5636 5638 5642
5504 5505 5509 5509 5511 5517 5525 5532 5535 5539 5545 5546 5549 5552 5554 5557 5560 5561 5563 5566 5568 5571 5572 5572 5572 5573 5573 5576 5581 5585 5589 5594 5598 5603 5606 5609 5611 5613 5616 5619 5622 5626 5629 5632
5496 5502 5507 5509 5512 5516 5523 5527 5531 5531 5538 5543 5544 5547 5552 5554 5556 5558 5559 5561 5563 5565 5567 5567 5568 5568 5569 5570 5572 5575 5579 5584 5588 5593 5597 5599 5602 5605 5607 5610 5613 5615 5618 5622
5504 5507 5509 5511 5514 5516 5517 5521 5522 5529 5538 5539 5542 5545 5548 5552 5554 5555 5556 5557 5558 5560 5561 5561 5561 5563 5564 5565 5565 5567 5571 5575 5579 5583 5586 5589 5591 5588 5595 5596 5602 5605 5607 5610
5509 5508 5510 5511 5512 5514 5512 5515 5521 5528 5532 5536 5539 5542 5545 5547 5548 5550 5551 5552 5553 5554 5555 5555 5556 5556 5557 5558 5560 5561 5563 5566 5567 5571 5575 5577 5577 5583 5585 5585 5589 5592 5596 5599
5510 5511 5513 5513 5512 5512 5514 5516 5520 5525 5530 5534 5537 5539 5541 5542 5544 5545 5546 5547 5547 5548 5548 5549 5550 5551 5552 5553 5554 5556 5556 5558 5559 5561 5562 5565 5566 5569 5571 5572 5575 5580 5581 5577
5506 5508 5510 5514 5513 5514 5517 5519 5523 5526 5529 5531 5534 5536 5538 5539 5540 5539 5540 5541 5542 5542 5542 5543 5544 5545 5546 5546 5548 5549 5550 5550 5550 5550 5554 5555 5555 5559 5560 5560 5564 5564 5565 5568
5506 5506 5508 5510 5514 5515 5517 5520 5523 5525 5528 5530 5532 5532 5533 5534 5534 5534 5536 5536 5537 5536 5536 5537 5537 5538 5539 5540 5541 5542 5543 5545 5545 5546 5547 5548 5547 5547 5549 5550 5553 5555 5556 5556
5507 5507 5509 5509 5512 5514 5517 5519 5522 5523 5525 5525 5525 5526 5527 5528 5529 5529 5530 5530 5531 5531 5531 5532 5533 5533 5532 5533 5535 5537 5537 5538 5539 5538 5539 5539 5539 5538 5540 5542 5544 5543 5544 5544